Location: Kuffner-Sternwarte
(48.2130°N, 16.2960°E)
Time: 10:48:28
(UTC+01:00)

N. Korean satellite - Pass Details

Date: 26 February 2019
Orbit: 456 x 510 km, 97.2° (Epoch: 20 March)

Event Time Altitude Azimuth Distance (km) Brightness Sun altitude
Rises 18:25:08 0° 213° (SSW) 2,564 10.8 -9.3°
Reaches altitude 10° 18:28:14 10° 243° (WSW) 1,676 10.4 -9.8°
Maximum altitude 18:29:53 13° 270° (W) 1,510 10.6 -10.1°
Drops below altitude 10° 18:31:33 10° 298° (WNW) 1,668 10.3 -10.4°
Sets 18:34:38 0° 328° (NNW) 2,541 10.7 -10.9°
